Weather History for Santiago, Dominican Republic

Change the Weather History Date:

Saturday, July 6, 2013

  Actual Average Record
Temperature  
Mean Temperature 79 °F -  
Max Temperature 87 °F 91 °F 93 °F (1997)
Min Temperature 71 °F 72 °F 71 °F (2008)
Cooling Degree Days 14    
Growing Degree Days 29 (Base 50)    
Moisture  
Dew Point 71 °F    
Average Humidity 76    
Maximum Humidity 100    
Minimum Humidity 52    
Precipitation  
Precipitation 0.00 in 0.08 in - ()
Sea Level Pressure  
Sea Level Pressure 30.00 in    
Wind  
Wind Speed 7 mph ()    
Max Wind Speed 25 mph    
Max Gust Speed -    
Visibility 6.2 miles    
Events      
Averages and records for this station are not official NWS values.
T = Trace of Precipitation, MM = Missing Value Source: Averaged Metar Reports

Daily Weather History Graph

Daily Weather History Graph

Search for Another Location

Airport:

Trip Planner

Search our weather history database for the weather conditions in past years. The results will help you decide how hot, cold, wet, or windy it might be!

Date:

Astronomy

Jul. 06, 2013 Rise Set
Actual Time 6:09 AM AST 7:24 PM AST
Civil Twilight 5:45 AM AST 7:49 PM AST
Nautical Twilight 5:16 AM AST 8:17 PM AST
Astronomical Twilight 4:46 AM AST 8:47 PM AST
Moon 4:46 AM AST (7/6) 6:10 PM AST (7/6)
Length of Visible Light 14h 03m
Length of Day
13h 15m
Waning Crescent, 2% of the Moon is Illuminated
Jul 6
Waning Crescent
Jul 8
New
Jul 15
First Quarter
Jul 22
Full
Jul 29
Last Quarter

Hourly Weather History & Observations

Time (AST) Temp. Heat Index Dew Point Humidity Pressure Visibility Wind Dir Wind Speed Gust Speed Precip Events Conditions
2:00 AM 73.4 °F - 71.6 °F 94% 30.01 in 6.2 mi SSE 5.8 mph - N/A   Partly Cloudy
3:00 AM 71.6 °F - 71.6 °F 100% 30.01 in 6.2 mi Calm Calm - N/A   Partly Cloudy
4:00 AM 73.4 °F - 71.6 °F 94% 30.01 in 6.2 mi ESE 6.9 mph - N/A   Partly Cloudy
5:00 AM 69.8 °F - 69.8 °F 100% 30.01 in 6.2 mi NE 4.6 mph - N/A   Partly Cloudy
6:00 AM 69.8 °F - 69.8 °F 100% 30.01 in 6.2 mi Calm Calm - N/A   Partly Cloudy
7:00 AM 69.8 °F - 69.8 °F 100% 30.01 in 6.2 mi Calm Calm - N/A   Scattered Clouds
8:00 AM 72 °F - 72 °F 99% 30.04 in 6 mi ESE 4.5 mph - -   Widespread Dust
8:00 AM 71.6 °F - 71.6 °F 100% 30.04 in 6.2 mi ESE 11.5 mph - N/A   Scattered Clouds
9:00 AM 78.8 °F - 73.4 °F 83% 30.04 in 6.2 mi SE 10.4 mph - N/A   Scattered Clouds
10:00 AM 80.6 °F 84.6 °F 71.6 °F 74% 30.04 in 6.2 mi SE 10.4 mph - N/A   Mostly Cloudy
11:00 AM 83 °F - 71 °F 59% 30.05 in 6 mi SE 11.2 mph - -   Widespread Dust
11:00 AM 82.4 °F 87.2 °F 71.6 °F 70% 30.04 in 6.2 mi SE 10.4 mph - N/A   Scattered Clouds
12:00 PM 84.2 °F 90.9 °F 73.4 °F 70% 30.04 in 6.2 mi SE 25.3 mph - N/A   Scattered Clouds
1:00 PM 86.0 °F 90.4 °F 69.8 °F 58% 30.01 in 6.2 mi ESE 16.1 mph - N/A   Scattered Clouds
2:00 PM 87 °F - 72 °F 52% 29.99 in 6 mi SSE 6.7 mph - -   Widespread Dust
2:00 PM 87.8 °F 93.8 °F 71.6 °F 58% 30.01 in 6.2 mi SSE 11.5 mph - N/A   Scattered Clouds
3:00 PM 86.0 °F 90.4 °F 69.8 °F 58% 29.95 in 6.2 mi ESE 15.0 mph - N/A   Scattered Clouds
4:00 PM 87.8 °F 92.6 °F 69.8 °F 55% 29.92 in 6.2 mi East 15.0 mph - N/A   Scattered Clouds
5:00 PM 86.0 °F 90.4 °F 69.8 °F 58% 29.92 in 6.2 mi ESE 9.2 mph - N/A   Scattered Clouds
6:00 PM 84.2 °F 88.4 °F 69.8 °F 62% 29.92 in 6.2 mi East 17.3 mph - N/A   Scattered Clouds
7:00 PM 82.4 °F 86.3 °F 69.8 °F 66% 29.95 in 6.2 mi ESE 11.5 mph - N/A   Scattered Clouds
8:00 PM 81 °F - 70 °F 63% 29.99 in 6 mi ESE 11.2 mph - -   Widespread Dust
8:00 PM 80.6 °F 83.9 °F 69.8 °F 70% 29.98 in 6.2 mi ESE 11.5 mph - N/A   Scattered Clouds
9:00 PM 77.0 °F - 69.8 °F 78% 29.98 in 6.2 mi SE 6.9 mph - N/A   Scattered Clouds
10:00 PM 77.0 °F - 69.8 °F 78% 29.98 in 6.2 mi SE 6.9 mph - N/A   Scattered Clouds
11:00 PM 75.2 °F - 69.8 °F 83% 30.01 in 6.2 mi SSE 6.9 mph - N/A   Scattered Clouds